2023/12/17 00:00:00, 0.0, 3.5
2023/12/17 00:10:00, 0.0, 3.4
2023/12/17 00:20:00, 0.0, 3.3
2023/12/17 00:30:00, 0.0, 3.4
2023/12/17 00:40:00, 0.0, 3.4
2023/12/17 00:50:00, 0.0, 3.3
2023/12/17 01:00:00, 0.0, 3.4
2023/12/17 01:10:00, 0.0, 3.2
2023/12/17 01:20:00, 0.0, 3.0
2023/12/17 01:30:00, 0.0, 2.8
2023/12/17 01:40:00, 0.0, 2.4
2023/12/17 01:50:00, 0.0, 2.4
2023/12/17 02:00:00, 0.1, 1.9
2023/12/17 02:10:00, 0.1, 2.0
2023/12/17 02:20:00, 0.0, 1.8
2023/12/17 02:30:00, 0.1, 1.8
2023/12/17 02:40:00, 0.0, 1.7
2023/12/17 02:50:00, 0.1, 1.6
2023/12/17 03:00:00, 0.1, 1.4
2023/12/17 03:10:00, 0.1, 1.3
2023/12/17 03:20:00, 0.1, 1.2
2023/12/17 03:30:00, 0.0, 1.4
2023/12/17 03:40:00, 0.0, 1.0
2023/12/17 03:50:00, 0.0, 0.9
2023/12/17 04:00:00, 0.0, 0.7
2023/12/17 04:10:00, 0.1, 0.8
2023/12/17 04:20:00, 0.0, 0.6
2023/12/17 04:30:00, 0.0, 0.6
2023/12/17 04:40:00, 0.0, 0.5
2023/12/17 04:50:00, 0.0, 0.6
2023/12/17 05:00:00, 0.1, 0.4
2023/12/17 05:10:00, 0.1,-0.2
2023/12/17 05:20:00, 0.0, 0.0
2023/12/17 05:30:00, 0.0, 0.0
2023/12/17 05:40:00, 0.0,-0.1
2023/12/17 05:50:00, 0.1, 0.0
2023/12/17 06:00:00, 0.0, 0.1
2023/12/17 06:10:00, 0.0,-0.2
2023/12/17 06:20:00, 0.0,-0.2
2023/12/17 06:30:00, 0.1,-0.3
2023/12/17 06:40:00, 0.0,-0.4
2023/12/17 06:50:00, 0.0,-0.4
2023/12/17 07:00:00, 0.0,-0.1
2023/12/17 07:10:00, 0.0,-0.4
2023/12/17 07:20:00, 0.0,-0.4
2023/12/17 07:30:00, 0.0,-0.5
2023/12/17 07:40:00, 0.0,-0.2
2023/12/17 07:50:00, 0.0,-0.1
2023/12/17 08:00:00, 0.0,-0.3
2023/12/17 08:10:00, 0.0,-0.2
2023/12/17 08:20:00, 0.0,-0.2
2023/12/17 08:30:00, 0.1,-0.4
2023/12/17 08:40:00, 0.1,-0.7
2023/12/17 08:50:00, 0.0,-0.7
2023/12/17 09:00:00, 0.1,-0.6
2023/12/17 09:10:00, 0.3,-0.7
2023/12/17 09:20:00, 0.3,-0.5
2023/12/17 09:30:00, 0.4,-0.5
2023/12/17 09:40:00, 0.3,-0.7
2023/12/17 09:50:00, 0.3,-0.3
2023/12/17 10:00:00, 0.3,-0.4
2023/12/17 10:10:00, 0.4,-0.6
2023/12/17 10:20:00, 0.4,-0.5
2023/12/17 10:30:00, 0.6, 0.0
2023/12/17 10:40:00, 0.5,-0.1
2023/12/17 10:50:00, 0.2,-0.1
2023/12/17 11:00:00, 0.2,-0.2
2023/12/17 11:10:00, 0.1,-0.4
2023/12/17 11:20:00, 0.0,-0.7
2023/12/17 11:30:00, 0.3,-0.8
2023/12/17 11:40:00, 0.9,-0.6
2023/12/17 11:50:00, 1.2,-0.6
2023/12/17 12:00:00, 1.1,-0.2
2023/12/17 12:10:00, 1.4,-0.2
2023/12/17 12:20:00, 2.0,-0.2
2023/12/17 12:30:00, 1.8, 0.3
2023/12/17 12:40:00, 1.6,-0.1
2023/12/17 12:50:00, 1.7, 0.9
2023/12/17 13:00:00, 1.4, 0.5
2023/12/17 13:10:00, 1.4, 0.3
2023/12/17 13:20:00, 1.4, 0.1
2023/12/17 13:30:00, 1.4, 0.1
2023/12/17 13:40:00, 1.3, 0.2
2023/12/17 13:50:00, 1.4, 0.6
2023/12/17 14:00:00, 1.2, 0.6
2023/12/17 14:10:00, 1.2, 0.8
2023/12/17 14:20:00, 0.9, 0.6
2023/12/17 14:30:00, 0.7, 0.8
2023/12/17 14:40:00, 0.6, 0.6
2023/12/17 14:50:00, 0.5, 0.5
2023/12/17 15:00:00, 0.4, 0.3
2023/12/17 15:10:00, 0.3, 0.2
2023/12/17 15:20:00, 0.2, 0.3
2023/12/17 15:30:00, 0.1, 0.3
2023/12/17 15:40:00, 0.1, 0.1
2023/12/17 15:50:00, 0.0, 0.5
2023/12/17 16:00:00, 0.0, 0.1
2023/12/17 16:10:00, 0.0, 0.4
2023/12/17 16:20:00, 0.0,-0.2
2023/12/17 16:30:00, 0.1,-0.2
2023/12/17 16:40:00, 0.1,-0.5
2023/12/17 16:50:00, 0.4,-0.8
2023/12/17 17:00:00, 0.5,-0.5
2023/12/17 17:10:00, 1.0,-1.0
2023/12/17 17:20:00, 1.2,-1.1
2023/12/17 17:30:00, 1.4,-0.9
2023/12/17 17:40:00, 1.9,-0.9
2023/12/17 17:50:00, 1.9,-0.9
2023/12/17 18:00:00, 2.1,-0.7
2023/12/17 18:10:00, 2.1,-0.8
2023/12/17 18:20:00, 2.1,-0.9
2023/12/17 18:30:00, 2.3,-0.8
2023/12/17 18:40:00, 2.7,-0.9
2023/12/17 18:50:00, 3.1,-0.9
2023/12/17 19:00:00, 3.5,-0.9
2023/12/17 19:10:00, 4.2,-1.0
2023/12/17 19:20:00, 4.2,-1.1
2023/12/17 19:30:00, 4.6,-1.1
2023/12/17 19:40:00, 5.1,-0.9
2023/12/17 19:50:00, 5.4,-1.1
2023/12/17 20:00:00, 5.8,-0.8
2023/12/17 20:10:00, 6.3,-1.0
2023/12/17 20:20:00, 7.0,-1.0
2023/12/17 20:30:00, 7.0,-0.9
2023/12/17 20:40:00, 7.1,-0.7
2023/12/17 20:50:00, 7.4,-0.9
2023/12/17 21:00:00, 7.9,-1.1
2023/12/17 21:10:00, 8.4,-0.8
2023/12/17 21:20:00, 9.0,-1.1
2023/12/17 21:30:00, 9.1,-1.1
2023/12/17 21:40:00, 9.6,-1.1
2023/12/17 21:50:00, 9.8,-1.1
2023/12/17 22:00:00,10.1,-1.1
2023/12/17 22:10:00,10.4,-1.0
2023/12/17 22:20:00,10.7,-0.8
2023/12/17 22:30:00,11.3,-1.1
2023/12/17 22:40:00,11.7,-0.9
2023/12/17 22:50:00,12.0,-0.9
2023/12/17 23:00:00,12.3,-0.9
2023/12/17 23:10:00,13.0,-0.8
2023/12/17 23:20:00,13.2,-1.1
2023/12/17 23:30:00,13.6,-1.0
2023/12/17 23:40:00,14.0,-0.8
2023/12/17 23:50:00,14.0,-1.0
